| time (UTC) | temp F | wind direction | speed knots | gust knots | rain 1hr in | rain 24hr in | rain mn in | humidity % | barometer mb |
| 20260504034016 | 56 | 0.0 | 0.9 | 0.00 | 0.00 | 0.00 | 44 | 1003.8 | |
| 20260504033016 | 57 | 0.0 | 0.0 | 0.00 | 0.00 | 0.00 | 42 | 1003.9 | |
| 20260504032016 | 58 | 0.0 | 0.0 | 0.00 | 0.00 | 0.00 | 40 | 1004.2 | |
| 20260504031016 | 60 | 0.0 | 0.9 | 0.00 | 0.00 | 0.00 | 38 | 1004.3 | |
| 20260504030016 | 60 | 0.0 | 0.9 | 0.00 | 0.00 | 0.00 | 36 | 1004.4 | |
| 20260504025016 | 60 | 0.0 | 0.9 | 0.00 | 0.00 | 0.00 | 36 | 1004.4 | |
| 20260504024036 | 60 | 0.0 | 0.0 | 0.00 | 0.00 | 0.00 | 36 | 1004.4 | |
| 20260504023016 | 60 | 0.0 | 0.0 | 0.00 | 0.00 | 0.00 | 37 | 1004.4 | |
| 20260504022016 | 59 | 0.0 | 0.9 | 0.00 | 0.00 | 0.00 | 40 | 1004.3 | |
| 20260504021036 | 59 | 0.0 | 0.0 | 0.00 | 0.00 | 0.00 | 39 | 1004.2 | |
| 20260504020036 | 60 | 0.0 | 0.0 | 0.00 | 0.00 | 0.00 | 38 | 1004.2 | |
| 20260504015016 | 60 | 0.0 | 0.0 | 0.00 | 0.00 | 0.00 | 37 | 1004.0 | |
| 20260504014016 | 61 | 0.0 | 0.0 | 0.00 | 0.00 | 0.00 | 35 | 1004.0 | |
| 20260504013036 | 62 | 0.0 | 0.0 | 0.00 | 0.00 | 0.00 | 34 | 1004.1 | |
| 20260504012036 | 63 | 0.0 | 0.0 | 0.00 | 0.00 | 0.00 | 33 | 1004.2 | |
| 20260504011016 | 64 | 0.0 | 1.7 | 0.00 | 0.00 | 0.00 | 32 | 1004.0 | |
| 20260504010036 | 64 | 270 | 0.9 | 1.7 | 0.00 | 0.00 | 0.00 | 32 | 1004.0 |
| 20260504005016 | 65 | 270 | 0.9 | 1.7 | 0.00 | 0.00 | 0.00 | 30 | 1004.1 |
| 20260504004016 | 66 | 270 | 1.7 | 5.2 | 0.00 | 0.00 | 0.00 | 30 | 1004.2 |
| 20260504003016 | 67 | 270 | 2.6 | 4.3 | 0.00 | 0.00 | 0.00 | 28 | 1004.2 |
| 20260504002016 | 67 | 270 | 2.6 | 5.2 | 0.00 | 0.00 | 0.00 | 29 | 1004.2 |
| 20260504001016 | 67 | 270 | 2.6 | 5.2 | 0.00 | 0.00 | 0.00 | 28 | 1004.3 |
| 20260504000016 | 68 | 270 | 1.7 | 3.5 | 0.00 | 0.00 | 0.00 | 31 | 1004.2 |
| 20260503235016 | 68 | 248 | 1.7 | 7.0 | 0.00 | 0.00 | 0.00 | 28 | 1004.3 |
| 20260503234016 | 68 | 293 | 1.7 | 3.5 | 0.00 | 0.00 | 0.00 | 30 | 1004.4 |
| 20260503233016 | 68 | 270 | 1.7 | 2.6 | 0.00 | 0.00 | 0.00 | 28 | 1004.5 |
| 20260503232016 | 69 | 270 | 2.6 | 7.0 | 0.00 | 0.00 | 0.00 | 28 | 1004.5 |
| 20260503231036 | 69 | 270 | 2.6 | 8.7 | 0.00 | 0.00 | 0.00 | 26 | 1004.6 |
| 20260503230016 | 69 | 270 | 1.7 | 3.5 | 0.00 | 0.00 | 0.00 | 28 | 1004.6 |
| 20260503225016 | 69 | 270 | 2.6 | 7.0 | 0.00 | 0.00 | 0.00 | 29 | 1004.4 |
| 20260503224036 | 69 | 270 | 1.7 | 6.1 | 0.00 | 0.00 | 0.00 | 34 | 1004.5 |
| 20260503223016 | 69 | 270 | 1.7 | 6.1 | 0.00 | 0.00 | 0.00 | 31 | 1004.5 |
| 20260503222116 | 69 | 270 | 1.7 | 3.5 | 0.00 | 0.00 | 0.00 | 33 | 1004.4 |
| 20260503221016 | 70 | 270 | 2.6 | 7.0 | 0.00 | 0.00 | 0.00 | 27 | 1004.4 |
| 20260503220036 | 70 | 270 | 2.6 | 7.0 | 0.00 | 0.00 | 0.00 | 31 | 1004.4 |
| 20260503215036 | 70 | 315 | 2.6 | 8.7 | 0.00 | 0.00 | 0.00 | 32 | 1004.4 |
| 20260503214036 | 70 | 270 | 1.7 | 5.2 | 0.00 | 0.00 | 0.00 | 33 | 1004.6 |
| 20260503213016 | 70 | 293 | 2.6 | 6.1 | 0.00 | 0.00 | 0.00 | 31 | 1004.4 |
| 20260503212016 | 70 | 270 | 3.5 | 7.8 | 0.00 | 0.00 | 0.00 | 32 | 1004.6 |
| 20260503211056 | 70 | 270 | 3.5 | 9.6 | 0.00 | 0.00 | 0.00 | 33 | 1004.6 |
| 20260503210036 | 71 | 270 | 3.5 | 7.0 | 0.00 | 0.00 | 0.00 | 33 | 1005.0 |
| 20260503205015 | 71 | 248 | 2.6 | 6.1 | 0.00 | 0.00 | 0.00 | 36 | 1005.0 |
| 20260503204016 | 70 | 315 | 3.5 | 9.6 | 0.00 | 0.00 | 0.00 | 32 | 1005.0 |
| 20260503203056 | 71 | 270 | 1.7 | 4.3 | 0.00 | 0.00 | 0.00 | 36 | 1005.2 |
| 20260503202016 | 70 | 315 | 3.5 | 7.8 | 0.00 | 0.00 | 0.00 | 32 | 1005.2 |
| 20260503201016 | 70 | 338 | 2.6 | 6.1 | 0.00 | 0.00 | 0.00 | 31 | 1005.1 |
| 20260503200015 | 70 | 270 | 3.5 | 9.6 | 0.00 | 0.00 | 0.00 | 33 | 1005.2 |
| 20260503195015 | 70 | 315 | 1.7 | 6.1 | 0.00 | 0.00 | 0.00 | 33 | 1005.3 |
| 20260503194015 | 70 | 270 | 2.6 | 7.0 | 0.00 | 0.00 | 0.00 | 32 | 1005.3 |
| 20260503193016 | 70 | 315 | 2.6 | 7.0 | 0.00 | 0.00 | 0.00 | 34 | 1005.3 |
| 20260503192035 | 70 | 293 | 2.6 | 10.4 | 0.00 | 0.00 | 0.00 | 35 | 1005.3 |
| 20260503191016 | 69 | 293 | 2.6 | 7.0 | 0.00 | 0.00 | 0.00 | 33 | 1005.4 |
| 20260503190016 | 69 | 315 | 3.5 | 7.8 | 0.00 | 0.00 | 0.00 | 33 | 1005.4 |
| 20260503185015 | 69 | 270 | 4.3 | 7.8 | 0.00 | 0.00 | 0.00 | 35 | 1005.4 |
| 20260503184016 | 69 | 270 | 3.5 | 7.0 | 0.00 | 0.00 | 0.00 | 38 | 1005.5 |
| 20260503183035 | 69 | 270 | 2.6 | 7.8 | 0.00 | 0.00 | 0.00 | 39 | 1005.6 |
| 20260503182015 | 68 | 270 | 3.5 | 6.1 | 0.00 | 0.00 | 0.00 | 39 | 1005.6 |
| 20260503181035 | 68 | 293 | 2.6 | 7.0 | 0.00 | 0.00 | 0.00 | 41 | 1005.8 |
| 20260503180015 | 67 | 338 | 2.6 | 6.1 | 0.00 | 0.00 | 0.00 | 40 | 1005.7 |
| 20260503175015 | 67 | 338 | 2.6 | 7.0 | 0.00 | 0.00 | 0.00 | 41 | 1005.7 |
| 20260503174015 | 67 | 293 | 3.5 | 9.6 | 0.00 | 0.00 | 0.00 | 42 | 1005.8 |
| 20260503173015 | 67 | 338 | 2.6 | 6.1 | 0.00 | 0.00 | 0.00 | 43 | 1005.8 |
| 20260503172015 | 66 | 270 | 1.7 | 5.2 | 0.00 | 0.00 | 0.00 | 45 | 1005.8 |
| 20260503171015 | 66 | 315 | 2.6 | 10.4 | 0.00 | 0.00 | 0.00 | 43 | 1005.6 |
| 20260503131017 | 54 | 225 | 2.6 | 7.0 | 0.00 | 0.00 | 0.00 | 51 | 1005.6 |
| 20260503081017 | 55 | 248 | 1.7 | 3.5 | 0.00 | 0.00 | 0.00 | 50 | 1008.7 |
| 20260503072017 | 53 | 203 | 1.7 | 7.0 | 0.00 | 0.00 | 0.00 | 49 | 1008.7 |
| 20260503071016 | 53 | 248 | 0.9 | 2.6 | 0.00 | 0.00 | 0.00 | 50 | 1008.7 |
| 20260503055016 | 54 | 135 | 0.9 | 5.2 | 0.00 | 0.00 | 0.00 | 48 | 1009.5 |
| 20260503054017 | 54 | 203 | 0.9 | 2.6 | 0.00 | 0.00 | 0.00 | 49 | 1009.6 |
| 20260503053017 | 54 | 180 | 1.7 | 5.2 | 0.00 | 0.00 | 0.00 | 50 | 1009.8 |
| 20260503052016 | 54 | 0.0 | 1.7 | 0.00 | 0.00 | 0.00 | 51 | 1009.8 | |
| 20260503051016 | 55 | 0.0 | 1.7 | 0.00 | 0.00 | 0.00 | 51 | 1010.0 | |
| 20260503050036 | 55 | 158 | 0.9 | 3.5 | 0.00 | 0.00 | 0.00 | 50 | 1010.2 |
| 20260503045016 | 55 | 158 | 0.9 | 3.5 | 0.00 | 0.00 | 0.00 | 48 | 1010.3 |
| 20260503044016 | 55 | 0.0 | 0.0 | 0.00 | 0.00 | 0.00 | 50 | 1010.4 | |
| 20260503043016 | 56 | 0.0 | 0.9 | 0.00 | 0.00 | 0.00 | 48 | 1010.4 | |
| 20260503042036 | 56 | 0.0 | 1.7 | 0.00 | 0.00 | 0.00 | 47 | 1010.6 | |
| 20260503041016 | 57 | 0.0 | 0.9 | 0.00 | 0.00 | 0.00 | 43 | 1010.9 | |
| 20260503040016 | 57 | 225 | 0.9 | 1.7 | 0.00 | 0.00 | 0.00 | 41 | 1010.8 |
| 20260503035016 | 58 | 203 | 1.7 | 3.5 | 0.00 | 0.00 | 0.00 | 42 | 1011.0 |